SWR9CW LSZH-LIPZ

Flight info

Callsign SWR9CW
Flight time 0h 39m
Altitude 31000
Route DEGES Y170 ARGAX DCT RESIA DCT ADOSA/N0373F190 L612 ALBET
Aircraft A320/M-SDE3FGHIRWY/LB1

Departure

Time 2026-04-26 19:18
Airport Zürich Airport (LSZH)

Arrival

Time 2026-04-26 19:58
Airport Venice Marco Polo Airport (LIPZ)
Time Latitude Longitude Altitude Speed Heading
2026-04-26 18:43 47.45171 8.55936 1407 ft 0 kts 186°
2026-04-26 19:05 47.45185 8.55938 1414 ft 4 kts 183°
2026-04-26 19:05 47.45211 8.55939 1412 ft 4 kts 179°
2026-04-26 19:06 47.45238 8.55940 1414 ft 4 kts 200°
2026-04-26 19:06 47.45249 8.55951 1415 ft 1 kts 276°
2026-04-26 19:10 47.45253 8.55892 1407 ft 11 kts 275°
2026-04-26 19:10 47.45264 8.55733 1409 ft 19 kts 276°
2026-04-26 19:10 47.45277 8.55596 1412 ft 11 kts 293°
2026-04-26 19:11 47.45335 8.55536 1412 ft 11 kts 333°
2026-04-26 19:11 47.45411 8.55483 1406 ft 14 kts 335°
2026-04-26 19:11 47.45510 8.55416 1404 ft 17 kts 335°
2026-04-26 19:11 47.45616 8.55343 1404 ft 12 kts 335°
2026-04-26 19:12 47.45671 8.55395 1400 ft 11 kts 86°
2026-04-26 19:12 47.45663 8.55520 1402 ft 16 kts 96°
2026-04-26 19:12 47.45651 8.55687 1405 ft 16 kts 96°
2026-04-26 19:12 47.45641 8.55830 1410 ft 11 kts 96°
2026-04-26 19:13 47.45634 8.55937 1410 ft 10 kts 96°
2026-04-26 19:13 47.45625 8.56046 1410 ft 11 kts 97°
2026-04-26 19:13 47.45617 8.56155 1417 ft 11 kts 96°
2026-04-26 19:13 47.45622 8.56251 1416 ft 9 kts 57°
2026-04-26 19:14 47.45694 8.56275 1413 ft 15 kts
2026-04-26 19:14 47.45812 8.56293 1418 ft 17 kts
2026-04-26 19:14 47.45934 8.56312 1413 ft 15 kts
2026-04-26 19:14 47.45966 8.56317 1412 ft 11 kts
2026-04-26 19:15 47.46014 8.56324 1411 ft 0 kts
2026-04-26 19:16 47.46016 8.56325 1411 ft 2 kts
2026-04-26 19:17 47.46072 8.56342 1417 ft 10 kts 27°
2026-04-26 19:17 47.46119 8.56406 1411 ft 9 kts 46°
2026-04-26 19:17 47.46148 8.56422 1412 ft 4 kts 320°
2026-04-26 19:17 47.46190 8.56364 1409 ft 23 kts 317°
2026-04-26 19:18 47.46519 8.55923 1402 ft 100 kts 317°
2026-04-26 19:18 47.47177 8.55020 1385 ft 155 kts 318°
2026-04-26 19:18 47.48028 8.53893 1868 ft 164 kts 319°
2026-04-26 19:18 47.48879 8.52776 2603 ft 164 kts 320°
2026-04-26 19:19 47.49728 8.51665 3216 ft 169 kts 326°
2026-04-26 19:19 47.50799 8.50654 3519 ft 191 kts 333°
2026-04-26 19:19 47.51995 8.49603 3898 ft 211 kts 324°
2026-04-26 19:19 47.52995 8.47906 4283 ft 235 kts 298°
2026-04-26 19:20 47.53444 8.45570 5114 ft 241 kts 273°
2026-04-26 19:20 47.53360 8.43874 5565 ft 251 kts 256°
2026-04-26 19:20 47.52197 8.40820 6404 ft 271 kts 220°
2026-04-26 19:20 47.50511 8.39483 7003 ft 284 kts 191°
2026-04-26 19:21 47.48543 8.39491 7831 ft 284 kts 166°
2026-04-26 19:21 47.46699 8.40532 8754 ft 287 kts 149°
2026-04-26 19:21 47.45216 8.42514 9589 ft 293 kts 128°
2026-04-26 19:21 47.44033 8.45009 10337 ft 300 kts 124°
2026-04-26 19:22 47.42863 8.47666 10660 ft 323 kts 123°
2026-04-26 19:22 47.41613 8.50564 11133 ft 338 kts 123°
2026-04-26 19:22 47.40329 8.53519 11825 ft 345 kts 123°
2026-04-26 19:22 47.39008 8.56508 12578 ft 350 kts 124°
2026-04-26 19:23 47.37653 8.59518 13316 ft 355 kts 124°
2026-04-26 19:23 47.36265 8.62552 14045 ft 359 kts 125°
2026-04-26 19:23 47.34852 8.65619 14690 ft 364 kts 125°
2026-04-26 19:23 47.33420 8.68721 15327 ft 368 kts 124°
2026-04-26 19:24 47.31974 8.71855 15961 ft 372 kts 124°
2026-04-26 19:24 47.30510 8.75025 16597 ft 376 kts 125°
2026-04-26 19:24 47.27533 8.81467 17875 ft 385 kts 125°
2026-04-26 19:25 47.26018 8.84742 18496 ft 389 kts 125°
2026-04-26 19:25 47.25004 8.86930 18849 ft 391 kts 125°
2026-04-26 19:25 47.22944 8.91379 19577 ft 396 kts 124°
2026-04-26 19:25 47.21382 8.94753 20102 ft 400 kts 124°
2026-04-26 19:26 47.19807 8.98144 20634 ft 404 kts 124°
2026-04-26 19:26 47.18214 9.01565 21151 ft 407 kts 124°
2026-04-26 19:26 47.16606 9.05021 21675 ft 411 kts 124°
2026-04-26 19:26 47.14987 9.08496 22190 ft 414 kts 124°
2026-04-26 19:27 47.13347 9.12005 22713 ft 418 kts 124°
2026-04-26 19:27 47.11695 9.15535 23227 ft 421 kts 124°
2026-04-26 19:27 47.10030 9.19091 23722 ft 424 kts 125°
2026-04-26 19:27 47.08349 9.22669 24161 ft 427 kts 125°
2026-04-26 19:28 47.06652 9.26268 24582 ft 430 kts 125°
2026-04-26 19:28 47.04839 9.29766 24989 ft 432 kts 132°
2026-04-26 19:28 47.02697 9.32848 25390 ft 434 kts 139°
2026-04-26 19:28 47.00445 9.35810 25792 ft 436 kts 139°
2026-04-26 19:29 46.98186 9.38788 26205 ft 438 kts 139°
2026-04-26 19:29 46.95940 9.41749 26618 ft 440 kts 139°
2026-04-26 19:29 46.93659 9.44757 27003 ft 443 kts 139°
2026-04-26 19:29 46.91366 9.47777 27403 ft 444 kts 139°
2026-04-26 19:30 46.89055 9.50808 27793 ft 446 kts 139°
2026-04-26 19:30 46.86740 9.53840 28210 ft 448 kts 139°
2026-04-26 19:30 46.84410 9.56889 28568 ft 451 kts 139°
2026-04-26 19:30 46.82863 9.58913 28814 ft 453 kts 139°
2026-04-26 19:31 46.79708 9.63034 29300 ft 456 kts 139°
2026-04-26 19:31 46.77334 9.66127 29688 ft 458 kts 139°
2026-04-26 19:31 46.74952 9.69232 30059 ft 460 kts 139°
2026-04-26 19:31 46.72564 9.72347 30403 ft 461 kts 139°
2026-04-26 19:32 46.70166 9.75472 30703 ft 463 kts 139°
2026-04-26 19:32 46.67757 9.78604 31015 ft 465 kts 140°
2026-04-26 19:32 46.65337 9.81747 31200 ft 465 kts 140°
2026-04-26 19:32 46.62959 9.84829 31245 ft 450 kts 140°
2026-04-26 19:33 46.58402 9.90733 31247 ft 436 kts 140°
2026-04-26 19:33 46.53869 9.96571 31251 ft 435 kts 140°
2026-04-26 19:34 46.49347 10.02386 31245 ft 434 kts 140°
2026-04-26 19:34 46.44790 10.08130 31232 ft 434 kts 142°
2026-04-26 19:35 46.40130 10.13688 31189 ft 433 kts 143°
2026-04-26 19:35 46.35463 10.19182 31197 ft 432 kts 143°
2026-04-26 19:36 46.31646 10.23858 31196 ft 433 kts 138°
2026-04-26 19:36 46.26647 10.31041 31213 ft 434 kts 136°
2026-04-26 19:37 46.22435 10.37282 31207 ft 433 kts 136°
2026-04-26 19:37 46.18229 10.43442 31222 ft 433 kts 137°
2026-04-26 19:38 46.13975 10.49618 30889 ft 434 kts 137°
2026-04-26 19:38 46.11842 10.52697 30642 ft 434 kts 137°
2026-04-26 19:38 46.09706 10.55773 30410 ft 434 kts 137°
2026-04-26 19:39 46.07553 10.58874 29957 ft 431 kts 137°
2026-04-26 19:39 46.05439 10.61918 29387 ft 428 kts 137°
2026-04-26 19:39 46.03345 10.64938 28833 ft 425 kts 137°
2026-04-26 19:39 46.01264 10.67937 28278 ft 422 kts 137°
2026-04-26 19:40 45.99196 10.70913 27746 ft 419 kts 137°
2026-04-26 19:40 45.97168 10.73825 27200 ft 416 kts 137°
2026-04-26 19:40 45.95124 10.76757 26684 ft 413 kts 137°
2026-04-26 19:40 45.93095 10.79662 26169 ft 410 kts 137°
2026-04-26 19:41 45.91081 10.82540 25660 ft 408 kts 137°
2026-04-26 19:41 45.89072 10.85411 25157 ft 406 kts 137°
2026-04-26 19:41 45.87075 10.88263 24678 ft 403 kts 137°
2026-04-26 19:41 45.85759 10.90140 24357 ft 401 kts 137°
2026-04-26 19:42 45.83125 10.93895 23683 ft 397 kts 137°
2026-04-26 19:42 45.81174 10.96672 23169 ft 393 kts 137°
2026-04-26 19:42 45.79246 10.99418 22684 ft 389 kts 137°
2026-04-26 19:42 45.77335 11.02140 22206 ft 386 kts 137°
2026-04-26 19:43 45.75436 11.04839 21722 ft 384 kts 137°
2026-04-26 19:43 45.73544 11.07520 21239 ft 382 kts 137°
2026-04-26 19:43 45.71658 11.10187 20745 ft 381 kts 137°
2026-04-26 19:43 45.69772 11.12852 20240 ft 380 kts 137°
2026-04-26 19:44 45.67895 11.15504 19740 ft 379 kts 137°
2026-04-26 19:44 45.66021 11.18147 19238 ft 378 kts 136°
2026-04-26 19:44 45.64273 11.20903 18474 ft 386 kts 125°
2026-04-26 19:44 45.62837 11.24214 17596 ft 394 kts 121°
2026-04-26 19:45 45.61442 11.27535 17243 ft 387 kts 121°
2026-04-26 19:45 45.60042 11.30875 16726 ft 384 kts 121°
2026-04-26 19:45 45.58703 11.34065 16318 ft 378 kts 121°
2026-04-26 19:45 45.57348 11.37284 15826 ft 376 kts 121°
2026-04-26 19:46 45.56002 11.40471 15371 ft 373 kts 121°
2026-04-26 19:46 45.54673 11.43609 14729 ft 367 kts 121°
2026-04-26 19:46 45.53364 11.46693 14071 ft 358 kts 121°
2026-04-26 19:46 45.52082 11.49708 13586 ft 355 kts 121°
2026-04-26 19:47 45.50805 11.52701 13113 ft 352 kts 121°
2026-04-26 19:47 45.49948 11.54710 12803 ft 350 kts 121°
2026-04-26 19:47 45.48281 11.58603 12184 ft 346 kts 121°
2026-04-26 19:47 45.47032 11.61515 11722 ft 343 kts 121°
2026-04-26 19:48 45.45794 11.64409 11246 ft 340 kts 121°
2026-04-26 19:48 45.44567 11.67280 10784 ft 338 kts 121°
2026-04-26 19:48 45.43347 11.70128 10328 ft 336 kts 121°
2026-04-26 19:48 45.42151 11.72916 10165 ft 323 kts 121°
2026-04-26 19:49 45.41001 11.75594 10044 ft 311 kts 120°
2026-04-26 19:49 45.39896 11.78170 9925 ft 299 kts 120°
2026-04-26 19:49 45.38832 11.80651 9534 ft 290 kts 120°
2026-04-26 19:49 45.37788 11.83080 8861 ft 287 kts 121°
2026-04-26 19:50 45.36748 11.85496 8203 ft 284 kts 121°
2026-04-26 19:50 45.35719 11.87875 7576 ft 280 kts 121°
2026-04-26 19:50 45.34705 11.90218 7036 ft 276 kts 121°
2026-04-26 19:50 45.33703 11.92536 6516 ft 274 kts 121°
2026-04-26 19:51 45.32708 11.94839 5996 ft 273 kts 121°
2026-04-26 19:51 45.31719 11.97124 5614 ft 270 kts 121°
2026-04-26 19:51 45.30736 11.99388 5211 ft 268 kts 121°
2026-04-26 19:51 45.29895 12.01682 5054 ft 256 kts 109°
2026-04-26 19:52 45.29554 12.04066 4932 ft 244 kts 92°
2026-04-26 19:52 45.29687 12.06404 4811 ft 233 kts 77°
2026-04-26 19:52 45.30229 12.08523 4628 ft 225 kts 62°
2026-04-26 19:52 45.31117 12.10328 4401 ft 223 kts 47°
2026-04-26 19:53 45.32251 12.11825 4115 ft 223 kts 41°
2026-04-26 19:53 45.33387 12.13270 4004 ft 214 kts 41°
2026-04-26 19:53 45.34483 12.14666 3823 ft 210 kts 41°
2026-04-26 19:53 45.35556 12.16034 3584 ft 204 kts 41°
2026-04-26 19:54 45.36596 12.17361 3309 ft 198 kts 41°
2026-04-26 19:54 45.37606 12.18650 3049 ft 192 kts 41°
2026-04-26 19:54 45.38587 12.19904 2808 ft 187 kts 41°
2026-04-26 19:54 45.39547 12.21130 2571 ft 183 kts 41°
2026-04-26 19:55 45.40488 12.22333 2329 ft 180 kts 41°
2026-04-26 19:55 45.41404 12.23505 2098 ft 173 kts 41°
2026-04-26 19:55 45.42261 12.24602 1900 ft 157 kts 41°
2026-04-26 19:55 45.43043 12.25603 1685 ft 147 kts 42°
2026-04-26 19:56 45.43795 12.26565 1484 ft 144 kts 43°
2026-04-26 19:56 45.44536 12.27510 1294 ft 143 kts 43°
2026-04-26 19:56 45.45290 12.28456 1113 ft 145 kts 43°
2026-04-26 19:56 45.46041 12.29427 916 ft 146 kts 43°
2026-04-26 19:57 45.46789 12.30382 714 ft 146 kts 44°
2026-04-26 19:57 45.47537 12.31343 544 ft 144 kts 43°
2026-04-26 19:57 45.48278 12.32292 367 ft 142 kts 44°
2026-04-26 19:57 45.49002 12.33239 165 ft 140 kts 45°
2026-04-26 19:58 45.49718 12.34161 15 ft 132 kts 44°
2026-04-26 19:58 45.50285 12.34901 14 ft 86 kts 42°
2026-04-26 19:58 45.50607 12.35307 14 ft 34 kts 40°
2026-04-26 19:58 45.50761 12.35411 16 ft 24 kts 15°
2026-04-26 19:59 45.50877 12.35449 16 ft 7 kts 12°
2026-04-26 19:59 45.50891 12.35453 16 ft 0 kts 11°
2026-04-26 20:00 45.50896 12.35454 16 ft 4 kts
2026-04-26 20:00 45.50942 12.35426 17 ft 7 kts 314°
2026-04-26 20:00 45.50970 12.35326 17 ft 15 kts 275°
2026-04-26 20:00 45.50937 12.35181 17 ft 16 kts 227°
2026-04-26 20:01 45.50849 12.35066 16 ft 18 kts 222°
2026-04-26 20:01 45.50748 12.34935 16 ft 21 kts 222°
2026-04-26 20:01 45.50646 12.34805 16 ft 19 kts 223°
2026-04-26 20:01 45.50604 12.34628 17 ft 20 kts 266°
2026-04-26 20:02 45.50598 12.34464 16 ft 12 kts 265°
2026-04-26 20:02 45.50561 12.34374 16 ft 8 kts 236°
2026-04-26 20:02 45.50554 12.34299 16 ft 7 kts 267°
2026-04-26 20:02 45.50554 12.34276 16 ft 7 kts 267°
2026-04-26 20:03 45.50552 12.34218 16 ft 1 kts 267°
2026-04-26 20:03 45.50551 12.34213 16 ft 1 kts 267°
2026-04-26 20:03 45.50551 12.34208 16 ft 0 kts 267°